Fort Myers, FL

9:39 PM EDT on June 23, 2018 (GMT -0400)
Page

Weather History for KFMY - October, 2017

Change the Weather History Date:

Thursday, October 12, 2017

  Actual Average Record
Temperature  
Mean Temperature 80 °F 79 °F  
Max Temperature 88 °F 88 °F 94 °F (1986)
Min Temperature 71 °F 70 °F 59 °F (1903)
Degree Days  
Heating Degree Days 0 0  
Month to date heating degree days 0 0  
Since 1 July heating degree days 0 0  
Cooling Degree Days 15 14  
Month to date cooling degree days 201 179  
Year to date cooling degree days 3712 3425  
Growing Degree Days 30 (Base 50)    
Moisture  
Dew Point 74 °F    
Average Humidity 89    
Maximum Humidity 100    
Minimum Humidity 63    
Precipitation  
Precipitation 0.20 in 0.10 in 4.83 in (1987)
Month to date precipitation 0.87 1.45  
Year to date precipitation 56.38 50.83  
Sea Level Pressure  
Sea Level Pressure 29.92 in    
Wind  
Wind Speed 10 mph (NE)    
Max Wind Speed 23 mph    
Max Gust Speed 33 mph    
Visibility 8 miles    
Events Rain , Thunderstorm    
T = Trace of Precipitation, MM = Missing Value Source: NWS Daily Summary

Daily Weather History Graph

Daily Weather History Graph

Search for Another Location

Airport or City:

Astronomy

Oct. 12, 2017 Rise Set
Actual Time 7:25 AM EDT 7:01 PM EDT
Civil Twilight 7:02 AM EDT 7:25 PM EDT
Nautical Twilight 6:35 AM EDT 7:52 PM EDT
Astronomical Twilight 6:08 AM EDT 8:18 PM EDT
Moon 12:25 AM EDT (10/12) 2:16 PM EDT (10/12)
Length of Visible Light 12h 23m
Length of Day
11h 36m
Waning Gibbous, 49% of the Moon is Illuminated
Oct 12
Waning Gibbous
Oct 19
New
Oct 27
First Quarter
Nov 4
Full
Nov 10
Last Quarter

Hourly Weather History & Observations

Time (EDT) Temp. Heat Index Dew Point Humidity Pressure Visibility Wind Dir Wind Speed Gust Speed Precip Events Conditions
12:53 AM 75.0 °F - 73.0 °F 94% 29.95 in 9.0 mi NE 6.9 mph - N/A   Clear
1:53 AM 73.9 °F - 72.0 °F 93% 29.94 in 9.0 mi NE 5.8 mph - N/A   Clear
2:53 AM 73.0 °F - 71.1 °F 93% 29.94 in 9.0 mi NE 4.6 mph - N/A   Clear
3:53 AM 72.0 °F - 71.1 °F 97% 29.94 in 9.0 mi NE 5.8 mph - N/A   Clear
4:53 AM 72.0 °F - 70.0 °F 93% 29.93 in 9.0 mi NE 5.8 mph - N/A   Clear
5:53 AM 71.1 °F - 70.0 °F 96% 29.92 in 9.0 mi NNE 5.8 mph - N/A   Clear
6:53 AM 71.1 °F - 70.0 °F 96% 29.93 in 9.0 mi NNE 8.1 mph - N/A   Clear
7:53 AM 72.0 °F - 71.1 °F 97% 29.94 in 8.0 mi North 8.1 mph - N/A   Clear
8:53 AM 75.0 °F - 71.1 °F 87% 29.96 in 8.0 mi NNE 8.1 mph - N/A   Partly Cloudy
9:53 AM 77.0 °F - 69.1 °F 76% 29.97 in 9.0 mi NE 11.5 mph - N/A   Mostly Cloudy
10:53 AM 79.0 °F - 71.1 °F 77% 29.97 in - NE 10.4 mph - N/A   Unknown
11:53 AM 84.0 °F 90.2 °F 73.0 °F 69% 29.95 in 10.0 mi NE 12.7 mph - N/A   Clear
12:53 PM 86.0 °F 93.8 °F 73.9 °F 67% 29.93 in 10.0 mi ENE 15.0 mph - N/A   Mostly Cloudy
1:53 PM 86.0 °F 93.0 °F 73.0 °F 65% 29.90 in 10.0 mi North 20.7 mph 26.5 mph N/A   Mostly Cloudy
2:53 PM 88.0 °F 97.5 °F 75.0 °F 65% 29.87 in 10.0 mi NE 17.3 mph 23.0 mph 0.00 in   Mostly Cloudy
3:53 PM 88.0 °F 96.5 °F 73.9 °F 63% 29.87 in 10.0 mi NNE 13.8 mph - N/A   Scattered Clouds
4:05 PM 84.0 °F 91.9 °F 75.0 °F 74% 29.86 in 1.5 mi NE 11.5 mph 28.8 mph 0.01 in Rain Heavy Rain
4:14 PM 82.0 °F 90.2 °F 77.0 °F 85% 29.86 in 3.0 mi NE 11.5 mph - 0.09 in Rain Light Rain
4:53 PM 82.9 °F 90.2 °F 75.0 °F 77% 29.87 in 10.0 mi ESE 5.8 mph - 0.09 in   Mostly Cloudy
5:45 PM 78.1 °F - 75.9 °F 93% 29.88 in 1.8 mi ENE 15.0 mph 33.4 mph 0.02 in Rain Heavy Rain
5:53 PM 77.0 °F - 75.9 °F 96% 29.89 in 1.5 mi ENE 6.9 mph - 0.11 in Rain Light Rain
5:56 PM 77.0 °F - 77.0 °F 100% 29.88 in 3.0 mi ENE 5.8 mph - 0.00 in Rain Light Rain
6:53 PM 78.1 °F - 78.1 °F 100% 29.91 in 6.0 mi ENE 10.4 mph - 0.00 in Rain Light Rain
7:00 PM 78.1 °F - 77.0 °F 96% 29.90 in 9.0 mi NE 10.4 mph - 0.00 in Rain , Thunderstorm Light Thunderstorms and Rain
7:15 PM 78.1 °F - 77.0 °F 96% 29.90 in 8.0 mi ENE 12.7 mph - 0.00 in Rain Light Rain
7:53 PM 77.0 °F - 75.9 °F 96% 29.92 in 10.0 mi NE 13.8 mph - 0.00 in Rain Light Rain
8:53 PM 75.9 °F - 75.0 °F 97% 29.92 in 10.0 mi NE 9.2 mph - 0.00 in   Clear
9:53 PM 75.9 °F - 75.9 °F 100% 29.94 in 10.0 mi NE 9.2 mph - N/A   Clear
10:53 PM 75.9 °F - 75.9 °F 100% 29.94 in 10.0 mi NE 8.1 mph - N/A   Mostly Cloudy
11:09 PM 75.9 °F - 75.9 °F 100% 29.94 in 10.0 mi NE 9.2 mph - N/A   Scattered Clouds
11:19 PM 75.9 °F - 75.9 °F 100% 29.94 in 10.0 mi ENE 6.9 mph - N/A   Mostly Cloudy
11:28 PM 75.9 °F - 75.9 °F 100% 29.94 in 10.0 mi NE 8.1 mph - N/A   Scattered Clouds
11:53 PM 75.9 °F - 75.9 °F 100% 29.95 in 9.0 mi NE 8.1 mph - N/A   Scattered Clouds